FW7263 Weather Reports


Display with metric or nautical units.
time (UTC)temp
F
wind
direction
speed
MPH
gust
MPH
rain 1hr
in
rain 24hr
in
rain mn
in
humidity
%
barometer
mb
20260505022327 59 183 0.0 0.0 0.00 0.00 0.00 76 1011.3
20260505021824 59 182 0.0 1.0 0.00 0.00 0.00 75 1011.5
20260505021321 60 184 0.0 1.0 0.00 0.00 0.00 74 1011.5
20260505020816 59 173 0.0 3.0 0.00 0.00 0.00 75 1011.6
20260505015116 59 181 1.0 1.0 0.00 0.00 0.00 75 1011.3
20260505014613 59 181 1.0 1.0 0.00 0.00 0.00 75 1011.3
20260505014110 59 181 1.0 1.0 0.00 0.00 0.00 75 1011.3
20260505013607 59 183 0.0 1.0 0.00 0.00 0.00 75 1011.5
20260505013104 59 185 0.0 0.0 0.00 0.00 0.00 75 1011.4
20260505012602 59 185 0.0 0.0 0.00 0.00 0.00 75 1011.3
20260505012059 59 185 0.0 0.0 0.00 0.00 0.00 74 1011.3
20260505011554 59 185 0.0 0.0 0.00 0.00 0.00 73 1011.2
20260505011052 60 185 0.0 0.0 0.00 0.00 0.00 72 1011.2
20260505010547 60 185 0.0 1.0 0.00 0.00 0.00 71 1011.0
20260505010044 60 186 0.0 1.0 0.00 0.00 0.00 71 1010.9
20260505005540 61 185 0.0 0.0 0.00 0.00 0.00 70 1010.9
20260505005038 61 188 0.0 1.0 0.00 0.00 0.00 70 1011.0
20260505004535 61 184 0.0 2.0 0.00 0.00 0.00 70 1011.0
20260505004032 61 150 2.0 3.0 0.00 0.00 0.00 70 1011.0
20260505003529 61 177 1.0 2.0 0.00 0.00 0.00 70 1011.1
20260505003026 61 169 0.0 2.0 0.00 0.00 0.00 71 1011.0
20260505002527 61 180 0.0 2.0 0.00 0.00 0.00 70 1010.9
20260505002026 61 185 0.0 0.0 0.00 0.00 0.00 71 1011.1
20260505001523 62 183 0.0 1.0 0.00 0.00 0.00 71 1010.7
20260505001020 62 181 0.0 2.0 0.00 0.00 0.00 70 1010.7
20260505000517 62 180 0.0 1.0 0.00 0.00 0.00 70 1010.6
20260505000015 63 185 2.0 2.0 0.00 0.00 0.00 69 1010.7
20260504235511 63 178 1.0 1.0 0.00 0.00 0.00 68 1010.8
20260504235008 64 183 0.0 2.0 0.00 0.00 0.00 67 1010.6
20260504234505 64 183 0.0 2.0 0.00 0.00 0.00 67 1010.6
20260504234002 64 183 0.0 2.0 0.00 0.00 0.00 67 1010.6
20260504233457 64 177 2.0 3.0 0.00 0.00 0.00 66 1010.4
20260504232954 64 169 2.0 3.0 0.00 0.00 0.00 66 1010.4
20260504232451 65 175 2.0 2.0 0.00 0.00 0.00 65 1010.5
20260504231949 65 182 1.0 1.0 0.00 0.00 0.00 63 1010.5
20260504231445 66 165 1.0 5.0 0.00 0.00 0.00 61 1010.4
20260504230941 66 87 2.0 3.0 0.00 0.00 0.00 60 1010.3
20260504230438 66 178 1.0 2.0 0.00 0.00 0.00 58 1010.3
20260504225937 67 186 1.0 2.0 0.00 0.00 0.00 58 1010.4
20260504225433 67 174 2.0 3.0 0.00 0.00 0.00 57 1010.4
20260504224931 67 178 2.0 3.0 0.00 0.00 0.00 57 1010.5
20260504224427 67 177 2.0 2.0 0.00 0.00 0.00 57 1010.1
20260504223924 68 170 0.0 1.0 0.00 0.00 0.00 55 1010.3
20260504223420 68 208 1.0 2.0 0.00 0.00 0.00 54 1010.2
20260504222916 69 166 1.0 2.0 0.00 0.00 0.00 53 1010.4
20260504222414 69 164 2.0 3.0 0.00 0.00 0.00 50 1010.3
20260504221912 69 164 2.0 3.0 0.00 0.00 0.00 50 1010.2
20260504221408 69 176 4.0 5.0 0.00 0.00 0.00 50 1010.4
20260504220905 69 117 3.0 5.0 0.00 0.00 0.00 50 1010.2
20260504220402 69 186 2.0 5.0 0.00 0.00 0.00 50 1010.2
20260504215859 70 157 6.0 7.0 0.00 0.00 0.00 49 1010.2
20260504215355 69 184 1.0 1.0 0.00 0.00 0.00 50 1010.3
20260504214851 70 192 1.0 6.0 0.00 0.00 0.00 49 1010.2
20260504214349 71 174 3.0 3.0 0.00 0.00 0.00 47 1010.2
20260504213845 71 178 3.0 3.0 0.00 0.00 0.00 46 1010.2
20260504213341 70 184 4.0 6.0 0.00 0.00 0.00 46 1010.0
20260504212839 71 167 3.0 5.0 0.00 0.00 0.00 46 1010.1
20260504212334 71 196 1.0 5.0 0.00 0.00 0.00 47 1010.2
20260504211833 71 167 3.0 5.0 0.00 0.00 0.00 46 1010.2
20260504211328 72 83 3.0 6.0 0.00 0.00 0.00 46 1009.8
20260504210826 73 174 2.0 3.0 0.00 0.00 0.00 45 1010.1
20260504210322 74 105 6.0 7.0 0.00 0.00 0.00 44 1010.2
20260504205820 75 202 2.0 6.0 0.00 0.00 0.00 35 1010.1
20260504205317 75 166 3.0 5.0 0.00 0.00 0.00 42 1010.1
20260504204815 74 191 2.0 2.0 0.00 0.00 0.00 43 1010.2
20260504204314 75 228 5.0 9.0 0.00 0.00 0.00 33 1010.3
20260504203813 75 231 6.0 8.0 0.00 0.00 0.00 32 1010.1
20260504203309 75 173 4.0 5.0 0.00 0.00 0.00 34 1010.3
20260504202804 75 199 6.0 7.0 0.00 0.00 0.00 32 1010.2
20260504202304 74 225 2.0 6.0 0.00 0.00 0.00 34 1010.2
20260504201759 75 195 3.0 5.0 0.00 0.00 0.00 34 1010.2
20260504201256 75 95 3.0 5.0 0.00 0.00 0.00 34 1010.1
20260504200754 74 159 3.0 3.0 0.00 0.00 0.00 33 1010.5
20260504200249 74 291 3.0 6.0 0.00 0.00 0.00 34 1010.3
20260504195746 75 230 3.0 3.0 0.00 0.00 0.00 36 1010.5
20260504195242 77 197 3.0 5.0 0.00 0.00 0.00 35 1010.6
20260504194739 77 197 3.0 5.0 0.00 0.00 0.00 35 1010.6
20260504194235 77 225 3.0 5.0 0.00 0.00 0.00 34 1010.6
20260504193731 76 180 3.0 5.0 0.00 0.00 0.00 33 1010.4
20260504193229 76 193 2.0 3.0 0.00 0.00 0.00 35 1010.4
20260504192727 75 202 2.0 2.0 0.00 0.00 0.00 36 1010.7
20260504192225 76 190 1.0 2.0 0.00 0.00 0.00 35 1010.9
20260504191724 74 251 8.0 10.0 0.00 0.00 0.00 35 1010.9
20260504191220 74 195 1.0 3.0 0.00 0.00 0.00 36 1010.6
20260504190646 75 194 1.0 3.0 0.00 0.00 0.00 37 1011.0
20260504190143 75 194 1.0 3.0 0.00 0.00 0.00 37 1011.0
20260504185639 75 198 2.0 3.0 0.00 0.00 0.00 35 1011.3
20260504185136 75 167 2.0 2.0 0.00 0.00 0.00 34 1011.1
20260504184631 76 194 1.0 3.0 0.00 0.00 0.00 38 1011.2
20260504184126 75 205 3.0 3.0 0.00 0.00 0.00 37 1011.2
20260504180351 75 199 4.0 5.0 0.00 0.00 0.00 34 1012.0
20260504175849 75 199 4.0 5.0 0.00 0.00 0.00 34 1012.0
20260504175345 75 199 4.0 5.0 0.00 0.00 0.00 34 1012.0
20260504174843 73 173 0.0 2.0 0.00 0.00 0.00 34 1012.0
20260504174341 74 218 3.0 5.0 0.00 0.00 0.00 36 1012.0
20260504173837 73 232 2.0 3.0 0.00 0.00 0.00 36 1011.8
20260504173334 72 198 1.0 1.0 0.00 0.00 0.00 36 1012.2
20260504172831 73 135 2.0 3.0 0.00 0.00 0.00 36 1012.2
20260504172328 72 190 3.0 5.0 0.00 0.00 0.00 37 1012.4
20260504171824 73 245 5.0 7.0 0.00 0.00 0.00 38 1012.4
20260504171321 73 167 3.0 3.0 0.00 0.00 0.00 36 1012.4
20260504170818 73 208 2.0 6.0 0.00 0.00 0.00 37 1012.4
20260504170315 74 180 2.0 5.0 0.00 0.00 0.00 37 1012.5
20260504160233 71 209 1.0 3.0 0.00 0.00 0.00 42 1013.2
20260504150659 69 178 1.0 3.0 0.00 0.00 0.00 50 1013.7
20260504150155 67 187 1.0 1.0 0.00 0.00 0.00 52 1013.8
20260504141124 66 207 2.0 6.0 0.00 0.00 0.00 53 1014.2
20260504140621 66 195 1.0 3.0 0.00 0.00 0.00 56 1014.1
20260504140117 64 199 3.0 5.0 0.00 0.00 0.00 53 1014.1
20260504130545 63 68 3.0 6.0 0.00 0.00 0.00 58 1014.7
20260504110433 44 196 0.0 0.0 0.00 0.00 0.00 91 1015.7
20260504100349 39 199 0.0 0.0 0.00 0.00 0.00 93 1015.7
20260504081742 41 198 0.0 0.0 0.00 0.00 0.00 88 1015.6
20260504081239 41 198 0.0 0.0 0.00 0.00 0.00 88 1015.5
20260504080735 41 198 0.0 0.0 0.00 0.00 0.00 88 1015.4
20260504080232 41 198 0.0 0.0 0.00 0.00 0.00 88 1015.2
20260504070200 41 192 0.0 0.0 0.00 0.00 0.00 87 1015.1
20260504060120 41 192 0.0 0.0 0.00 0.00 0.00 82 1014.6
20260504050548 41 191 0.0 0.0 0.00 0.00 0.00 79 1014.8
20260504045542 41 191 0.0 0.0 0.00 0.00 0.00 79 1014.8
20260504045037 41 191 0.0 0.0 0.00 0.00 0.00 79 1014.6
20260504044535 41 191 0.0 0.0 0.00 0.00 0.00 79 1014.4
20260504044032 41 191 0.0 0.0 0.00 0.00 0.00 76 1014.7
20260504043529 41 191 0.0 0.0 0.00 0.00 0.00 76 1014.8
20260504043026 41 191 0.0 0.0 0.00 0.00 0.00 76 1014.6
20260504042523 41 191 0.0 0.0 0.00 0.00 0.00 76 1014.7
20260504042020 41 191 0.0 0.0 0.00 0.00 0.00 76 1014.7
20260504041516 41 191 0.0 0.0 0.00 0.00 0.00 76 1014.5
20260504041012 41 191 0.0 0.0 0.00 0.00 0.00 75 1014.5
20260504040510 41 191 0.0 0.0 0.00 0.00 0.00 75 1014.7
20260504040006 41 191 0.0 1.0 0.00 0.00 0.00 75 1014.5
20260504035503 41 191 0.0 0.0 0.00 0.00 0.00 75 1014.6
20260504034959 41 191 0.0 0.0 0.00 0.00 0.00 75 1014.7
20260504034457 41 191 0.0 0.0 0.00 0.00 0.00 75 1014.3
20260504033954 41 191 0.0 0.0 0.00 0.00 0.00 75 1014.5
20260504033452 41 191 0.0 0.0 0.00 0.00 0.00 75 1014.1
20260504032949 41 191 0.0 0.0 0.00 0.00 0.00 75 1014.3
20260504032446 42 191 0.0 0.0 0.00 0.00 0.00 75 1014.3
20260504031942 42 191 0.0 0.0 0.00 0.00 0.00 75 1014.3
20260504031439 42 191 0.0 0.0 0.00 0.00 0.00 75 1014.2
20260504030936 42 191 0.0 0.0 0.00 0.00 0.00 74 1014.1
20260504030433 43 191 0.0 0.0 0.00 0.00 0.00 74 1014.4
20260504025929 43 191 0.0 0.0 0.00 0.00 0.00 74 1014.2
20260504025426 43 191 0.0 0.0 0.00 0.00 0.00 74 1014.2
20260504024923 43 191 0.0 0.0 0.00 0.00 0.00 74 1014.3
20260504024420 43 191 0.0 0.0 0.00 0.00 0.00 74 1014.4
20260504023917 43 191 0.0 0.0 0.00 0.00 0.00 73 1014.3
20260504023413 43 191 0.0 0.0 0.00 0.00 0.00 71 1014.2
20260504022909 43 191 0.0 0.0 0.00 0.00 0.00 72 1014.2